Weather History for Texarkana, AR

Change the Weather History Date:

Monday, April 1, 2013

  Actual Average Record
Temperature  
Mean Temperature 65 °F 60 °F  
Max Temperature 78 °F 72 °F 88 °F (1918)
Min Temperature 51 °F 48 °F 30 °F (1924)
Degree Days  
Heating Degree Days 0 6  
Month to date heating degree days 0 6  
Since 1 July heating degree days 2336 2500  
Cooling Degree Days 0 1  
Month to date cooling degree days 0 1  
Year to date cooling degree days 15 24  
Growing Degree Days 14 (Base 50)    
Moisture  
Dew Point 54 °F    
Average Humidity 68    
Maximum Humidity 100    
Minimum Humidity 36    
Precipitation  
Precipitation 0.00 in 0.13 in 1.46 in (1945)
Month to date precipitation 0.00 0.13  
Year to date precipitation 8.05 11.72  
Snow  
Snow 0.00 in - - ()
Month to date snowfall 0.0  
Since 1 July snowfall 2.1  
Snow Depth 0.00 in    
Sea Level Pressure  
Sea Level Pressure 30.03 in    
Wind  
Wind Speed 2 mph (East)    
Max Wind Speed 12 mph    
Max Gust Speed 14 mph    
Visibility 6 miles    
Events Fog    
T = Trace of Precipitation, MM = Missing Value Source: NWS Daily Summary

Daily Weather History Graph

Daily Weather History Graph

Search for Another Location

Airport:

Trip Planner

Search our weather history database for the weather conditions in past years. The results will help you decide how hot, cold, wet, or windy it might be!

Date:

Astronomy

Apr. 01, 2013 Rise Set
Actual Time 7:03 AM CDT 7:36 PM CDT
Civil Twilight 6:38 AM CDT 8:01 PM CDT
Nautical Twilight 6:08 AM CDT 8:31 PM CDT
Astronomical Twilight 5:38 AM CDT 9:01 PM CDT
Moon 12:32 AM CDT (4/1) 11:03 AM CDT (4/1)
Length of Visible Light 13h 23m
Length of Day
12h 33m
Waning Gibbous, 67% of the Moon is Illuminated
Apr 1
Waning Gibbous
Apr 2
Last Quarter
Apr 10
New
Apr 18
First Quarter
Apr 25
Full

Hourly Weather History & Observations

Time (CDT) Temp. Dew Point Humidity Pressure Visibility Wind Dir Wind Speed Gust Speed Precip Events Conditions
12:53 AM 55.0 °F 55.0 °F 100% 29.97 in 9.0 mi Calm Calm - N/A   Clear
1:53 AM 55.9 °F 55.9 °F 100% 29.99 in 10.0 mi Calm Calm - N/A   Clear
2:53 AM 55.0 °F 54.0 °F 96% 29.99 in 10.0 mi West 3.5 mph - N/A   Scattered Clouds
3:53 AM 55.0 °F 55.0 °F 100% 30.00 in 5.0 mi Calm Calm - N/A   Clear
4:27 AM 53.6 °F 53.6 °F 100% 30.01 in 2.0 mi Calm Calm - N/A   Clear
4:38 AM 55.4 °F 55.4 °F 100% 30.01 in 4.0 mi Calm Calm - N/A   Clear
4:51 AM 51.8 °F 51.8 °F 100% 30.01 in 1.5 mi Calm Calm - N/A   Clear
5:03 AM 51.8 °F 51.8 °F 100% 30.01 in 0.8 mi NNE 4.6 mph - N/A   Mostly Cloudy
5:09 AM 51.8 °F 51.8 °F 100% 30.01 in 0.2 mi Calm Calm - N/A Fog Fog
5:53 AM 54.0 °F 54.0 °F 100% 30.02 in 1.2 mi Calm Calm - N/A   Overcast
6:05 AM 53.6 °F 53.6 °F 100% 30.03 in 0.2 mi Calm Calm - N/A Fog Fog
6:17 AM 53.6 °F 53.6 °F 100% 30.03 in 0.2 mi Calm Calm - N/A Fog Fog
6:53 AM 52.0 °F 52.0 °F 100% 30.03 in 0.2 mi SE 3.5 mph - 0.01 in Fog Fog
7:17 AM 51.8 °F 51.8 °F 100% 30.04 in 0.2 mi SSE 5.8 mph - N/A Fog Fog
7:26 AM 53.6 °F 53.6 °F 100% 30.05 in 1.0 mi Calm Calm - N/A   Mist
7:28 AM 51.8 °F 51.8 °F 100% 30.05 in 2.0 mi Calm Calm - N/A   Mist
7:44 AM 53.6 °F 53.6 °F 100% 30.05 in 3.0 mi Calm Calm - N/A   Partly Cloudy
7:53 AM 54.0 °F 54.0 °F 100% 30.05 in 4.0 mi Calm Calm - N/A   Clear
8:38 AM 55.4 °F 55.4 °F 100% 30.08 in 0.8 mi NE 5.8 mph - N/A   Mist
8:53 AM 55.0 °F 55.0 °F 100% 30.08 in 0.2 mi Calm Calm - N/A Fog Fog
9:04 AM 55.4 °F 55.4 °F 100% 30.09 in 0.8 mi Calm Calm - N/A   Mist
9:13 AM 57.2 °F 57.2 °F 100% 30.09 in 1.5 mi Calm Calm - N/A   Mostly Cloudy
9:18 AM 57.2 °F 57.2 °F 100% 30.09 in 3.0 mi Calm Calm - N/A   Mostly Cloudy
9:29 AM 59.0 °F 57.2 °F 94% 30.10 in 7.0 mi Calm Calm - N/A   Scattered Clouds
9:53 AM 63.0 °F 60.1 °F 90% 30.09 in 10.0 mi Calm Calm - N/A   Clear
11:53 AM 70.0 °F 53.1 °F 55% 30.09 in 10.0 mi Calm Calm - N/A   Clear
12:53 PM 72.0 °F 53.1 °F 51% 30.07 in 10.0 mi Variable 4.6 mph - N/A   Clear
1:53 PM 73.0 °F 52.0 °F 48% 30.06 in 10.0 mi Calm Calm - N/A   Overcast
2:53 PM 75.0 °F 50.0 °F 41% 30.03 in 10.0 mi Calm Calm - N/A   Partly Cloudy
3:53 PM 75.9 °F 46.9 °F 36% 30.01 in 10.0 mi Variable 4.6 mph - N/A   Clear
4:53 PM 77.0 °F 51.1 °F 40% 30.00 in 10.0 mi Variable 3.5 mph - N/A   Clear
5:53 PM 75.0 °F 53.1 °F 46% 29.99 in 10.0 mi NE 9.2 mph - N/A   Clear
6:53 PM 73.0 °F 53.1 °F 49% 29.99 in 10.0 mi ENE 6.9 mph - N/A   Clear
7:53 PM 66.0 °F 53.1 °F 63% 29.99 in 10.0 mi Calm Calm - N/A   Clear
8:53 PM 64.0 °F 53.1 °F 67% 30.00 in 10.0 mi Calm Calm - N/A   Clear
9:53 PM 64.0 °F 53.1 °F 67% 30.01 in 10.0 mi East 3.5 mph - N/A   Clear
10:53 PM 64.9 °F 51.1 °F 61% 30.04 in 10.0 mi ESE 4.6 mph - N/A   Clear
11:53 PM 62.1 °F 53.1 °F 72% 30.03 in 10.0 mi East 3.5 mph - N/A   Scattered Clouds